Location: Hermaringen
(48.5952°N, 10.2585°E)
Time: 10:33:35
(UTC+00:00)

Courier 1B - Pass Details

Date: 22 February 2026
Orbit: 962 x 1208 km, 28.3° (Epoch: 7 March)

Event Time Altitude Azimuth Distance (km) Brightness Sun altitude
Rises 17:14:11 0° 211° (SSW) 3,777 11.2 -4.5°
Reaches altitude 10° 17:19:48 10° 175° (S) 2,901 10.0 -5.4°
Maximum altitude 17:21:06 11° 164° (SSE) 2,878 9.9 -5.6°
Drops below altitude 10° 17:22:25 10° 153° (SSE) 2,937 9.8 -5.8°
Enters shadow 17:28:15 - 118° (ESE) 3,960 10.2 -6.8°
Sets 17:28:18 0° 118° (ESE) 3,974 - -6.8°
